THORAD DELTA 1 DEB, 8788

Orbit data source: Space-Track

THORAD DELTA 1 DEB, 8788 is space debris in SSO originally from a launch on Fri, 15 Nov 1974 UTC launched from the Air Force Western Test Range (AFWTR). Debris objects in space refer to the collection of defunct objects orbiting the Earth. Examples of debris include non-operational satellites, rocket bodies, and fragments generated from explosions, collisions, or faulty payload assembly.

Loading next visibility...
Identifier
8788, 1974-089DQ
Orbit
SSO
Country
Flag of USUS
Related business
Manufacturer
Unknown
Mission
Spacecraft
Bus & Motor
Unknown
Mass
Unknown
Launch date (UTC)
1974-11-15 (52 years ago)
Launch vehicle
Unknown
Launch site
Air Force Western Test Range (AFWTR)
Object type
Payload
Rocket body
Debris
Shape & HBR
Unknown shape, 0.2 m
Radar Cross Section
Medium (>0.1 m² and <1 m²)

Expand to show TLE details & history
Last TLE update: 3 hours ago

TLE from 3 hours ago
0 THORAD DELTA 1 DEB
1  8788U 74089DQ  26170.22519998 -.00000016  00000-0  21657-3 0  9992
2  8788 102.0925 269.7306 0071791  82.7148  29.8820 12.39844050335398
Epoch: 2026-06-19T05:24Z
TLE epoch observation values (Epoch: 2026-06-19T05:24:17.278Z)
Latitude
64.2462°
Longitude
127.42761°
Altitude
1,469.156 km
Speed
7.156 km/s
True Right ascension
07h 43m 49s
True Declination
64° 07' 25"
Sunlit
Object was in daylight at epoch
Visualization orbit readout
Latitude
Unknown
Longitude
Unknown
Altitude
Unknown
Speed
Unknown
Apparent Right ascension
Unknown
Apparent Declination
Unknown
Sunlit
N/A
Visualization observer readout
Local Sidereal Time
19:15:02
Azimuth
Unknown
Elevation
Unknown
Doppler factor
Unknown
Orbital elements
Apogee altitude
1,561.437 km
Perigee altitude
1,448.252 km
Semi-major axis
7,882.982 km
Eccentricity
0.00718
Inclination
102.0925°
RAAN
269.7306°
Arg. of periapsis
82.7148°
True anomaly
30.29507°
Mean anomaly
29.882°
Eccentric anomaly
30.08821°
Mean motion
3.10104 °/min
Orbital period
116.09 mins
BSTAR
0.00021657
Loading maneuver chart data...
Computing Atmospheric mass density...

Documentation

Showing up to 5 results
|